| time (UTC) | temp F | wind direction | speed knots | gust knots | rain 1hr in | rain 24hr in | rain mn in | humidity % | barometer mb |
| 20260506202000 | 57 | 202 | 13.0 | 20.0 | 0.00 | 0.00 | 0.02 | 94 | 29.7 |
| 20260506201500 | 56 | 225 | 14.8 | 17.4 | 0.00 | 0.00 | 0.02 | 93 | 29.7 |
| 20260506200500 | 56 | 228 | 13.0 | 20.0 | 0.00 | 0.00 | 0.02 | 92 | 29.7 |
| 20260506195500 | 56 | 226 | 13.9 | 17.4 | 0.00 | 0.00 | 0.02 | 92 | 29.7 |
| 20260506195000 | 56 | 207 | 7.0 | 22.6 | 0.00 | 0.00 | 0.02 | 91 | 29.7 |
| 20260506194000 | 56 | 206 | 10.4 | 18.2 | 0.00 | 0.00 | 0.02 | 92 | 29.7 |
| 20260506185500 | 56 | 197 | 7.8 | 16.5 | 0.00 | 0.00 | 0.02 | 92 | 29.8 |
| 20260506183500 | 56 | 197 | 12.2 | 21.7 | 0.02 | 0.00 | 0.02 | 92 | 29.8 |
| 20260506182500 | 56 | 202 | 9.6 | 15.6 | 0.02 | 0.00 | 0.02 | 93 | 29.8 |
| 20260506182000 | 56 | 210 | 13.0 | 22.6 | 0.02 | 0.00 | 0.02 | 92 | 29.8 |
| 20260506181000 | 56 | 229 | 10.4 | 17.4 | 0.02 | 0.00 | 0.02 | 93 | 29.8 |
| 20260506180500 | 56 | 212 | 14.8 | 24.3 | 0.02 | 0.00 | 0.02 | 93 | 29.8 |
| 20260506180001 | 56 | 192 | 8.7 | 14.8 | 0.02 | 0.00 | 0.02 | 93 | 29.8 |
| 20260506175500 | 56 | 207 | 7.8 | 24.3 | 0.02 | 0.00 | 0.02 | 93 | 29.8 |
| 20260506174501 | 56 | 221 | 5.2 | 19.1 | 0.01 | 0.00 | 0.01 | 93 | 29.8 |
| 20260506174000 | 56 | 207 | 20.0 | 20.9 | 0.00 | 0.00 | 0.00 | 92 | 29.8 |
| 20260506173000 | 56 | 208 | 14.8 | 19.1 | 0.00 | 0.00 | 0.00 | 92 | 29.8 |
| 20260506171500 | 56 | 232 | 11.3 | 21.7 | 0.00 | 0.00 | 0.00 | 92 | 29.8 |
| 20260506171000 | 56 | 213 | 13.9 | 20.9 | 0.00 | 0.00 | 0.00 | 91 | 29.8 |
| 20260506170500 | 56 | 220 | 20.9 | 22.6 | 0.00 | 0.00 | 0.00 | 91 | 29.8 |
| 20260506170000 | 56 | 205 | 18.2 | 23.5 | 0.00 | 0.00 | 0.00 | 90 | 29.8 |
| 20260506165500 | 56 | 201 | 16.5 | 21.7 | 0.00 | 0.00 | 0.00 | 90 | 29.8 |
| 20260506165000 | 57 | 210 | 11.3 | 26.1 | 0.00 | 0.00 | 0.00 | 89 | 29.8 |
| 20260506163500 | 57 | 210 | 7.8 | 17.4 | 0.00 | 0.00 | 0.00 | 88 | 29.8 |
| 20260506162000 | 57 | 194 | 8.7 | 23.5 | 0.00 | 0.00 | 0.00 | 87 | 29.8 |
| 20260506161500 | 57 | 209 | 10.4 | 22.6 | 0.00 | 0.00 | 0.00 | 87 | 29.8 |
| 20260506160000 | 57 | 206 | 16.5 | 20.9 | 0.00 | 0.00 | 0.00 | 87 | 29.8 |
| 20260506155000 | 57 | 209 | 11.3 | 26.1 | 0.00 | 0.00 | 0.00 | 87 | 29.8 |
| 20260506154500 | 58 | 218 | 16.5 | 22.6 | 0.00 | 0.00 | 0.00 | 86 | 29.8 |
| 20260506153500 | 58 | 239 | 11.3 | 22.6 | 0.00 | 0.00 | 0.00 | 86 | 29.8 |
| 20260506153001 | 58 | 230 | 5.2 | 25.2 | 0.00 | 0.00 | 0.00 | 86 | 29.8 |
| 20260506152500 | 58 | 213 | 13.0 | 20.0 | 0.00 | 0.00 | 0.00 | 86 | 29.8 |
| 20260506152000 | 58 | 205 | 18.2 | 24.3 | 0.00 | 0.00 | 0.00 | 86 | 29.8 |
| 20260506151500 | 58 | 215 | 7.8 | 19.1 | 0.00 | 0.00 | 0.00 | 86 | 29.8 |
| 20260506150500 | 58 | 217 | 12.2 | 22.6 | 0.00 | 0.00 | 0.00 | 86 | 29.8 |
| 20260506145500 | 58 | 182 | 14.8 | 22.6 | 0.00 | 0.00 | 0.00 | 86 | 29.8 |
| 20260506145000 | 58 | 202 | 14.8 | 20.9 | 0.00 | 0.00 | 0.00 | 86 | 29.8 |
| 20260506142500 | 58 | 202 | 7.8 | 22.6 | 0.00 | 0.00 | 0.00 | 86 | 29.8 |
| 20260506141500 | 58 | 220 | 18.2 | 21.7 | 0.00 | 0.00 | 0.00 | 85 | 29.8 |
| 20260506140500 | 58 | 213 | 15.6 | 23.5 | 0.00 | 0.00 | 0.00 | 86 | 29.8 |
| 20260506140000 | 58 | 214 | 13.9 | 24.3 | 0.00 | 0.00 | 0.00 | 86 | 29.8 |
| 20260506135000 | 58 | 201 | 13.0 | 20.0 | 0.00 | 0.00 | 0.00 | 87 | 29.8 |
| 20260506134500 | 57 | 234 | 10.4 | 24.3 | 0.00 | 0.00 | 0.00 | 87 | 29.8 |
| 20260506134000 | 58 | 227 | 13.0 | 20.0 | 0.00 | 0.00 | 0.00 | 87 | 29.8 |
| 20260506133001 | 58 | 208 | 18.2 | 20.0 | 0.00 | 0.00 | 0.00 | 87 | 29.8 |
| 20260506132500 | 57 | 209 | 9.6 | 23.5 | 0.00 | 0.00 | 0.00 | 87 | 29.8 |
| 20260506132000 | 57 | 214 | 10.4 | 20.0 | 0.00 | 0.00 | 0.00 | 87 | 29.8 |
| 20260506131500 | 57 | 237 | 7.0 | 21.7 | 0.00 | 0.00 | 0.00 | 88 | 29.8 |
| 20260506130000 | 57 | 217 | 14.8 | 20.0 | 0.00 | 0.00 | 0.00 | 88 | 29.8 |
| 20260506125500 | 57 | 213 | 20.9 | 20.9 | 0.00 | 0.00 | 0.00 | 88 | 29.8 |
| 20260506125000 | 57 | 219 | 7.8 | 15.6 | 0.00 | 0.00 | 0.00 | 88 | 29.8 |
| 20260506124500 | 57 | 226 | 10.4 | 20.0 | 0.00 | 0.00 | 0.00 | 88 | 29.8 |
| 20260506124000 | 57 | 203 | 13.0 | 20.9 | 0.00 | 0.00 | 0.00 | 87 | 29.8 |
| 20260506123500 | 58 | 224 | 13.9 | 17.4 | 0.00 | 0.00 | 0.00 | 87 | 29.8 |
| 20260506123000 | 57 | 203 | 14.8 | 20.9 | 0.00 | 0.00 | 0.00 | 87 | 29.8 |
| 20260506122500 | 58 | 233 | 8.7 | 17.4 | 0.00 | 0.00 | 0.00 | 87 | 29.8 |
| 20260506122000 | 57 | 213 | 9.6 | 20.0 | 0.00 | 0.00 | 0.00 | 88 | 29.8 |
| 20260506121500 | 57 | 209 | 14.8 | 17.4 | 0.00 | 0.00 | 0.00 | 89 | 29.8 |
| 20260506121000 | 57 | 217 | 13.0 | 21.7 | 0.00 | 0.00 | 0.00 | 88 | 29.8 |
| 20260506115000 | 57 | 205 | 9.6 | 25.2 | 0.00 | 0.00 | 0.00 | 89 | 29.8 |
| 20260506114500 | 57 | 203 | 13.9 | 20.9 | 0.00 | 0.00 | 0.00 | 89 | 29.8 |
| 20260506114000 | 57 | 203 | 7.0 | 20.0 | 0.00 | 0.00 | 0.00 | 89 | 29.8 |
| 20260506113000 | 56 | 218 | 6.1 | 16.5 | 0.00 | 0.00 | 0.00 | 90 | 29.8 |
| 20260506111000 | 56 | 233 | 9.6 | 19.1 | 0.00 | 0.00 | 0.00 | 90 | 29.8 |
| 20260506105000 | 56 | 237 | 13.9 | 18.2 | 0.00 | 0.00 | 0.00 | 91 | 29.8 |
| 20260506104500 | 56 | 196 | 7.8 | 18.2 | 0.00 | 0.00 | 0.00 | 91 | 29.8 |
| 20260506102500 | 56 | 207 | 13.0 | 18.2 | 0.00 | 0.00 | 0.00 | 91 | 29.8 |
| 20260506093500 | 56 | 219 | 13.0 | 23.5 | 0.00 | 0.00 | 0.00 | 91 | 29.8 |
| 20260506090500 | 56 | 210 | 8.7 | 16.5 | 0.00 | 0.00 | 0.00 | 91 | 29.8 |
| 20260506085000 | 56 | 206 | 11.3 | 16.5 | 0.00 | 0.00 | 0.00 | 91 | 29.8 |
| 20260506081001 | 56 | 210 | 13.0 | 20.0 | 0.00 | 0.00 | 0.00 | 89 | 29.8 |
| 20260506062500 | 57 | 225 | 16.5 | 23.5 | 0.00 | 0.00 | 0.00 | 86 | 29.9 |
| 20260506061500 | 57 | 220 | 13.0 | 26.9 | 0.00 | 0.00 | 0.00 | 86 | 29.8 |
| 20260506060500 | 57 | 221 | 13.0 | 23.5 | 0.00 | 0.00 | 0.00 | 85 | 29.9 |
| 20260506042500 | 58 | 220 | 15.6 | 23.5 | 0.00 | 0.00 | 0.00 | 84 | 29.9 |
| 20260506041500 | 58 | 228 | 13.9 | 26.1 | 0.00 | 0.00 | 0.00 | 84 | 29.9 |
| 20260506041000 | 58 | 232 | 14.8 | 22.6 | 0.00 | 0.00 | 0.00 | 83 | 29.9 |
| 20260506034500 | 58 | 238 | 15.6 | 23.5 | 0.00 | 0.00 | 0.00 | 83 | 29.9 |
| 20260506034000 | 58 | 221 | 15.6 | 23.5 | 0.00 | 0.00 | 0.00 | 83 | 29.9 |
| 20260506033500 | 58 | 218 | 11.3 | 18.2 | 0.00 | 0.00 | 0.00 | 83 | 29.9 |
| 20260506031500 | 57 | 218 | 13.9 | 15.6 | 0.00 | 0.00 | 0.00 | 83 | 29.9 |
| 20260506031000 | 58 | 214 | 14.8 | 19.1 | 0.00 | 0.00 | 0.00 | 83 | 29.9 |
| 20260506030500 | 58 | 215 | 9.6 | 24.3 | 0.00 | 0.00 | 0.00 | 83 | 29.9 |
| 20260506025000 | 58 | 221 | 9.6 | 18.2 | 0.00 | 0.00 | 0.00 | 83 | 29.9 |
| 20260506024500 | 58 | 217 | 18.2 | 23.5 | 0.00 | 0.00 | 0.00 | 83 | 29.9 |
| 20260506023500 | 58 | 218 | 15.6 | 21.7 | 0.00 | 0.00 | 0.00 | 83 | 29.9 |
| 20260506020500 | 58 | 233 | 15.6 | 26.1 | 0.00 | 0.00 | 0.00 | 82 | 29.9 |
| 20260506020000 | 59 | 227 | 16.5 | 26.9 | 0.00 | 0.00 | 0.00 | 81 | 29.9 |
| 20260506015500 | 58 | 214 | 8.7 | 25.2 | 0.00 | 0.00 | 0.00 | 81 | 29.9 |
| 20260506015001 | 58 | 214 | 9.6 | 18.2 | 0.00 | 0.00 | 0.00 | 81 | 29.9 |
| 20260506014501 | 58 | 219 | 11.3 | 16.5 | 0.00 | 0.00 | 0.00 | 81 | 29.9 |
| 20260506013500 | 59 | 210 | 13.0 | 24.3 | 0.00 | 0.00 | 0.00 | 80 | 29.9 |
| 20260506012500 | 58 | 211 | 21.7 | 25.2 | 0.00 | 0.00 | 0.00 | 80 | 29.9 |
| 20260506012000 | 58 | 220 | 14.8 | 25.2 | 0.00 | 0.00 | 0.00 | 80 | 29.9 |
| 20260506011500 | 59 | 211 | 13.0 | 21.7 | 0.00 | 0.00 | 0.00 | 79 | 29.9 |
| 20260506011000 | 59 | 208 | 13.0 | 20.9 | 0.00 | 0.00 | 0.00 | 78 | 29.9 |
| 20260506004000 | 60 | 211 | 17.4 | 31.3 | 0.00 | 0.00 | 0.00 | 77 | 29.8 |
| 20260506003500 | 59 | 210 | 20.9 | 26.9 | 0.00 | 0.00 | 0.00 | 77 | 29.8 |
| 20260506003000 | 60 | 212 | 16.5 | 25.2 | 0.00 | 0.00 | 0.00 | 77 | 29.8 |
| 20260506002500 | 60 | 211 | 11.3 | 29.5 | 0.00 | 0.00 | 0.00 | 77 | 29.8 |
| 20260506002000 | 59 | 219 | 18.2 | 26.1 | 0.00 | 0.00 | 0.00 | 77 | 29.8 |
| 20260506001500 | 60 | 211 | 18.2 | 26.9 | 0.00 | 0.00 | 0.00 | 77 | 29.8 |
| 20260506001000 | 60 | 203 | 17.4 | 26.9 | 0.00 | 0.00 | 0.00 | 77 | 29.8 |
| 20260506000500 | 60 | 201 | 7.0 | 21.7 | 0.00 | 0.00 | 0.00 | 77 | 29.8 |
| 20260506000000 | 60 | 219 | 16.5 | 25.2 | 0.00 | 0.00 | 0.00 | 77 | 29.8 |
| 20260505235500 | 60 | 207 | 15.6 | 29.5 | 0.00 | 0.00 | 0.00 | 77 | 29.8 |
| 20260505234500 | 60 | 198 | 11.3 | 27.8 | 0.00 | 0.00 | 0.00 | 76 | 29.8 |
| 20260505233000 | 60 | 215 | 19.1 | 26.9 | 0.00 | 0.00 | 0.00 | 76 | 29.8 |
| 20260505231000 | 60 | 223 | 14.8 | 40.0 | 0.00 | 0.00 | 0.00 | 76 | 29.8 |
| 20260505230500 | 60 | 204 | 13.9 | 35.6 | 0.00 | 0.00 | 0.00 | 77 | 29.8 |
| 20260505230000 | 60 | 212 | 13.9 | 33.0 | 0.00 | 0.00 | 0.00 | 77 | 29.8 |
| 20260505225000 | 60 | 219 | 11.3 | 21.7 | 0.00 | 0.00 | 0.00 | 77 | 29.8 |
| 20260505224500 | 60 | 219 | 15.6 | 26.9 | 0.00 | 0.00 | 0.00 | 77 | 29.8 |
| 20260505224000 | 60 | 214 | 11.3 | 26.1 | 0.00 | 0.00 | 0.00 | 77 | 29.8 |
| 20260505223500 | 60 | 218 | 16.5 | 30.4 | 0.00 | 0.00 | 0.00 | 77 | 29.8 |
| 20260505222500 | 60 | 205 | 14.8 | 31.3 | 0.00 | 0.00 | 0.00 | 76 | 29.8 |
| 20260505221500 | 60 | 215 | 23.5 | 26.1 | 0.00 | 0.00 | 0.00 | 76 | 29.8 |
| 20260505221000 | 60 | 202 | 13.9 | 21.7 | 0.00 | 0.00 | 0.00 | 76 | 29.8 |
| 20260505220500 | 61 | 195 | 22.6 | 28.7 | 0.00 | 0.00 | 0.00 | 75 | 29.8 |
| 20260505220000 | 60 | 199 | 16.5 | 25.2 | 0.00 | 0.00 | 0.00 | 75 | 29.8 |
| 20260505215500 | 60 | 206 | 17.4 | 22.6 | 0.00 | 0.00 | 0.00 | 75 | 29.8 |
| 20260505215000 | 60 | 210 | 16.5 | 26.1 | 0.00 | 0.00 | 0.00 | 76 | 29.8 |
| 20260505214501 | 60 | 221 | 14.8 | 22.6 | 0.00 | 0.00 | 0.00 | 75 | 29.8 |
| 20260505213500 | 60 | 202 | 13.9 | 23.5 | 0.00 | 0.00 | 0.00 | 75 | 29.8 |
| 20260505213000 | 60 | 197 | 15.6 | 26.1 | 0.00 | 0.00 | 0.00 | 74 | 29.8 |
| 20260505212000 | 61 | 192 | 13.0 | 26.9 | 0.00 | 0.00 | 0.00 | 74 | 29.8 |
| 20260505211500 | 61 | 197 | 7.0 | 27.8 | 0.00 | 0.00 | 0.00 | 73 | 29.8 |
| 20260505211000 | 61 | 216 | 21.7 | 27.8 | 0.00 | 0.00 | 0.00 | 74 | 29.8 |
| 20260505210500 | 61 | 194 | 8.7 | 27.8 | 0.00 | 0.00 | 0.00 | 74 | 29.8 |
| 20260505210000 | 61 | 186 | 10.4 | 28.7 | 0.00 | 0.00 | 0.00 | 74 | 29.8 |
| 20260505205500 | 61 | 215 | 20.0 | 26.9 | 0.00 | 0.00 | 0.00 | 74 | 29.8 |
| 20260505205000 | 61 | 200 | 22.6 | 24.3 | 0.00 | 0.00 | 0.00 | 73 | 29.8 |
| 20260505204500 | 61 | 193 | 4.3 | 25.2 | 0.00 | 0.00 | 0.00 | 74 | 29.8 |
| 20260505204000 | 61 | 196 | 22.6 | 26.1 | 0.00 | 0.00 | 0.00 | 74 | 29.8 |
| 20260505203500 | 61 | 207 | 23.5 | 26.9 | 0.00 | 0.00 | 0.00 | 74 | 29.8 |
| 20260505203000 | 61 | 206 | 13.9 | 25.2 | 0.00 | 0.00 | 0.00 | 75 | 29.8 |
| 20260505202500 | 60 | 214 | 13.0 | 22.6 | 0.00 | 0.00 | 0.00 | 76 | 29.8 |